Time,TemperatureF,DewpointF,PressureIn,WindDirection,WindDirectionDegrees,WindSpeedMPH,WindSpeedGustMPH,Humidity,HourlyPrecipIn,Conditions,Clouds,dailyrainin,SolarRadiationWatts/m^2,SoftwareType,DateUTC
2013-11-23 00:01:00,28.0,28.0,-100.00,NNE,29,1.0,6.0,98,0.00,,,0.14,0.000000,,2013-11-23 07:01:00,
2013-11-23 00:11:00,28.0,28.0,-100.00,NNE,29,1.0,6.0,98,0.00,,,0.14,0.000000,,2013-11-23 07:11:00,
2013-11-23 00:42:00,28.0,28.0,-100.00,NE,48,6.0,10.0,98,0.00,,,0.11,0.000000,,2013-11-23 07:42:00,
2013-11-23 00:52:00,28.0,28.0,-100.00,NE,48,6.0,10.0,98,0.00,,,0.11,0.000000,,2013-11-23 07:52:00,
2013-11-23 01:01:00,28.0,28.0,-100.00,NE,48,6.0,10.0,98,0.00,,,0.11,0.000000,,2013-11-23 08:01:00,
2013-11-23 01:12:00,28.0,28.0,-100.00,NE,48,6.0,10.0,98,0.00,,,0.11,0.000000,,2013-11-23 08:12:00,
2013-11-23 01:52:00,29.0,29.0,-100.00,East,95,3.0,14.0,98,0.00,,,0.07,0.000000,,2013-11-23 08:52:00,
2013-11-23 02:02:00,29.0,29.0,-100.00,East,95,3.0,14.0,98,0.00,,,0.07,0.000000,,2013-11-23 09:02:00,
2013-11-23 02:11:00,29.0,29.0,-100.00,East,95,3.0,14.0,98,0.00,,,0.07,0.000000,,2013-11-23 09:11:00,
2013-11-23 02:43:00,29.0,29.0,-100.00,NE,39,4.0,7.0,98,0.00,,,0.03,0.000000,,2013-11-23 09:43:00,
2013-11-23 02:54:00,29.0,29.0,-100.00,NE,39,4.0,7.0,98,0.00,,,0.03,0.000000,,2013-11-23 09:54:00,
2013-11-23 03:03:00,29.0,29.0,-100.00,NE,39,4.0,7.0,98,0.00,,,0.03,0.000000,,2013-11-23 10:03:00,
2013-11-23 03:12:00,29.0,29.0,-100.00,NE,39,4.0,7.0,98,0.00,,,0.03,0.000000,,2013-11-23 10:12:00,
2013-11-23 03:42:00,29.0,29.0,-100.00,ENE,59,4.0,10.0,98,0.00,,,-99.99,0.000000,,2013-11-23 10:42:00,
2013-11-23 03:52:00,29.0,29.0,-100.00,ENE,59,4.0,10.0,98,0.00,,,-99.99,0.000000,,2013-11-23 10:52:00,
2013-11-23 04:02:00,29.0,29.0,-100.00,ENE,59,4.0,10.0,98,0.00,,,-99.99,0.000000,,2013-11-23 11:02:00,
2013-11-23 04:12:00,29.0,29.0,-100.00,ENE,59,4.0,10.0,98,0.00,,,-99.99,0.000000,,2013-11-23 11:12:00,
2013-11-23 04:43:00,29.0,29.0,-100.00,ENE,76,7.0,11.0,99,0.00,,,0.00,0.000000,,2013-11-23 11:43:00,
2013-11-23 04:52:00,29.0,29.0,-100.00,ENE,76,7.0,11.0,99,0.00,,,0.00,0.000000,,2013-11-23 11:52:00,
2013-11-23 05:02:00,29.0,29.0,-100.00,ENE,76,7.0,11.0,99,0.00,,,0.00,0.000000,,2013-11-23 12:02:00,
2013-11-23 05:11:00,29.0,29.0,-100.00,ENE,76,7.0,11.0,99,0.00,,,0.00,0.000000,,2013-11-23 12:11:00,
2013-11-23 05:42:00,29.0,29.0,-100.00,East,85,2.0,10.0,99,0.00,,,0.00,0.000000,,2013-11-23 12:42:00,
2013-11-23 05:52:00,29.0,29.0,-100.00,East,85,2.0,10.0,99,0.00,,,0.00,0.000000,,2013-11-23 12:52:00,
2013-11-23 06:01:00,29.0,29.0,-100.00,East,85,2.0,10.0,99,0.00,,,0.00,0.000000,,2013-11-23 13:01:00,
2013-11-23 06:11:00,29.0,29.0,-100.00,East,85,2.0,10.0,99,0.00,,,0.00,0.000000,,2013-11-23 13:11:00,
2013-11-23 06:42:00,29.0,29.0,-100.00,ESE,111,2.0,7.0,99,0.00,,,0.00,0.000000,,2013-11-23 13:42:00,
2013-11-23 06:52:00,29.0,29.0,-100.00,ESE,111,2.0,7.0,99,0.00,,,0.00,0.000000,,2013-11-23 13:52:00,
2013-11-23 07:02:00,29.0,29.0,-100.00,ESE,111,2.0,7.0,99,0.00,,,0.00,0.000000,,2013-11-23 14:02:00,
2013-11-23 07:11:00,29.0,29.0,-100.00,ESE,111,2.0,7.0,99,0.00,,,0.00,0.000000,,2013-11-23 14:11:00,
2013-11-23 07:42:00,29.0,29.0,-100.00,East,90,3.0,7.0,99,0.00,,,0.00,0.000000,,2013-11-23 14:42:00,
2013-11-23 07:52:00,29.0,29.0,-100.00,East,90,3.0,7.0,99,0.00,,,0.00,0.000000,,2013-11-23 14:52:00,
2013-11-23 08:02:00,29.0,29.0,-100.00,East,90,3.0,7.0,99,0.00,,,0.00,0.000000,,2013-11-23 15:02:00,
2013-11-23 08:11:00,29.0,29.0,-100.00,East,90,3.0,7.0,99,0.00,,,0.00,0.000000,,2013-11-23 15:11:00,
2013-11-23 08:43:00,29.0,29.0,-100.00,SSE,147,3.0,8.0,98,0.00,,,0.00,4.000000,,2013-11-23 15:43:00,
2013-11-23 08:54:00,29.0,29.0,-100.00,SSE,147,3.0,8.0,98,0.00,,,0.00,4.000000,,2013-11-23 15:54:00,
2013-11-23 09:04:00,29.0,29.0,-100.00,SSE,147,3.0,8.0,98,0.00,,,0.00,4.000000,,2013-11-23 16:04:00,
2013-11-23 09:13:00,29.0,29.0,-100.00,SSE,147,3.0,8.0,98,0.00,,,0.00,4.000000,,2013-11-23 16:13:00,
2013-11-23 09:43:00,30.0,29.0,-100.00,NW,323,1.0,13.0,98,0.00,,,-99.99,11.000000,,2013-11-23 16:43:00,
2013-11-23 09:53:00,30.0,29.0,-100.00,NW,323,1.0,13.0,98,0.00,,,-99.99,11.000000,,2013-11-23 16:53:00,
2013-11-23 10:02:00,30.0,29.0,-100.00,NW,323,1.0,13.0,98,0.00,,,-99.99,11.000000,,2013-11-23 17:02:00,
2013-11-23 10:11:00,30.0,29.0,-100.00,NW,323,1.0,13.0,98,0.00,,,-99.99,11.000000,,2013-11-23 17:11:00,
2013-11-23 10:42:00,32.0,32.0,-100.00,ENE,60,5.0,11.0,98,0.00,,,0.00,19.000000,,2013-11-23 17:42:00,
2013-11-23 10:52:00,32.0,32.0,-100.00,ENE,60,5.0,11.0,98,0.00,,,0.00,19.000000,,2013-11-23 17:52:00,
2013-11-23 11:01:00,32.0,32.0,-100.00,ENE,60,5.0,11.0,98,0.00,,,0.00,19.000000,,2013-11-23 18:01:00,
2013-11-23 11:12:00,32.0,32.0,-100.00,ENE,60,5.0,11.0,98,0.00,,,0.00,19.000000,,2013-11-23 18:12:00,
2013-11-23 11:42:00,33.0,32.0,-100.00,NE,53,2.0,9.0,97,0.00,,,0.00,33.000000,,2013-11-23 18:42:00,
2013-11-23 11:52:00,33.0,32.0,-100.00,NE,53,2.0,9.0,97,0.00,,,0.00,33.000000,,2013-11-23 18:52:00,
2013-11-23 12:01:00,33.0,32.0,-100.00,NE,53,2.0,9.0,97,0.00,,,0.00,33.000000,,2013-11-23 19:01:00,
2013-11-23 12:11:00,33.0,32.0,-100.00,NE,53,2.0,9.0,97,0.00,,,0.00,33.000000,,2013-11-23 19:11:00,
2013-11-23 12:42:00,32.0,31.0,-100.00,SW,234,1.0,5.0,97,0.00,,,0.00,32.000000,,2013-11-23 19:42:00,
2013-11-23 12:52:00,32.0,31.0,-100.00,SW,234,1.0,5.0,97,0.00,,,0.00,32.000000,,2013-11-23 19:52:00,
2013-11-23 13:02:00,32.0,31.0,-100.00,SW,234,1.0,5.0,97,0.00,,,0.00,32.000000,,2013-11-23 20:02:00,
2013-11-23 13:11:00,32.0,31.0,-100.00,SW,234,1.0,5.0,97,0.00,,,0.00,32.000000,,2013-11-23 20:11:00,
2013-11-23 13:42:00,34.0,33.0,-100.00,NE,47,6.0,11.0,96,0.00,,,0.00,65.000000,,2013-11-23 20:42:00,
2013-11-23 13:52:00,34.0,33.0,-100.00,NE,47,6.0,11.0,96,0.00,,,0.00,65.000000,,2013-11-23 20:52:00,
2013-11-23 14:02:00,34.0,33.0,-100.00,NE,47,6.0,11.0,96,0.00,,,0.00,65.000000,,2013-11-23 21:02:00,
2013-11-23 14:11:00,34.0,33.0,-100.00,NE,47,6.0,11.0,96,0.00,,,0.00,65.000000,,2013-11-23 21:11:00,
2013-11-23 14:43:00,33.0,32.0,-100.00,ENE,68,8.0,14.0,97,0.00,,,0.00,69.000000,,2013-11-23 21:43:00,
2013-11-23 14:53:00,33.0,32.0,-100.00,ENE,68,8.0,14.0,97,0.00,,,0.00,69.000000,,2013-11-23 21:53:00,
2013-11-23 15:03:00,33.0,32.0,-100.00,ENE,68,8.0,14.0,97,0.00,,,0.00,69.000000,,2013-11-23 22:03:00,
2013-11-23 15:13:00,33.0,32.0,-100.00,ENE,68,8.0,14.0,97,0.00,,,0.00,69.000000,,2013-11-23 22:13:00,
2013-11-23 15:43:00,32.0,32.0,-100.00,ENE,68,9.0,15.0,98,0.00,,,0.00,71.000000,,2013-11-23 22:43:00,
2013-11-23 15:52:00,32.0,32.0,-100.00,ENE,68,9.0,15.0,98,0.00,,,0.00,71.000000,,2013-11-23 22:52:00,
2013-11-23 16:02:00,32.0,32.0,-100.00,ENE,68,9.0,15.0,98,0.00,,,0.00,71.000000,,2013-11-23 23:02:00,
2013-11-23 16:12:00,32.0,32.0,-100.00,ENE,68,9.0,15.0,98,0.00,,,0.00,71.000000,,2013-11-23 23:12:00,
2013-11-23 16:42:00,31.0,31.0,-100.00,ENE,72,6.0,14.0,99,0.03,,,0.03,71.000000,,2013-11-23 23:42:00,
2013-11-23 16:53:00,31.0,31.0,-100.00,ENE,72,6.0,14.0,99,0.03,,,0.03,71.000000,,2013-11-23 23:53:00,
2013-11-23 17:02:00,31.0,31.0,-100.00,ENE,72,6.0,14.0,99,0.03,,,0.03,71.000000,,2013-11-24 00:02:00,
2013-11-23 17:11:00,31.0,31.0,-100.00,ENE,72,6.0,14.0,99,0.03,,,0.03,71.000000,,2013-11-24 00:11:00,
2013-11-23 17:42:00,30.0,30.0,-100.00,WSW,251,2.0,8.0,100,0.01,,,0.04,18.000000,,2013-11-24 00:42:00,
2013-11-23 17:52:00,30.0,30.0,-100.00,WSW,251,2.0,8.0,100,0.01,,,0.04,18.000000,,2013-11-24 00:52:00,
2013-11-23 18:01:00,30.0,30.0,-100.00,WSW,251,2.0,8.0,100,0.01,,,0.04,18.000000,,2013-11-24 01:01:00,
2013-11-23 18:11:00,30.0,30.0,-100.00,WSW,251,2.0,8.0,100,0.01,,,0.04,18.000000,,2013-11-24 01:11:00,
2013-11-23 18:42:00,30.0,30.0,-100.00,ENE,65,2.0,5.0,99,0.01,,,0.05,0.000000,,2013-11-24 01:42:00,
2013-11-23 18:52:00,30.0,30.0,-100.00,ENE,65,2.0,5.0,99,0.01,,,0.05,0.000000,,2013-11-24 01:52:00,
2013-11-23 19:01:00,30.0,30.0,-100.00,ENE,65,2.0,5.0,99,0.01,,,0.05,0.000000,,2013-11-24 02:01:00,
2013-11-23 19:11:00,30.0,30.0,-100.00,ENE,65,2.0,5.0,99,0.01,,,0.05,0.000000,,2013-11-24 02:11:00,
2013-11-23 19:42:00,29.0,29.0,-100.00,East,92,0.0,3.0,99,0.00,,,0.05,0.000000,,2013-11-24 02:42:00,
2013-11-23 19:52:00,29.0,29.0,-100.00,East,92,0.0,3.0,99,0.00,,,0.05,0.000000,,2013-11-24 02:52:00,
2013-11-23 20:02:00,29.0,29.0,-100.00,East,92,0.0,3.0,99,0.00,,,0.05,0.000000,,2013-11-24 03:02:00,
2013-11-23 20:11:00,29.0,29.0,-100.00,East,92,0.0,3.0,99,0.00,,,0.05,0.000000,,2013-11-24 03:11:00,
2013-11-23 20:43:00,30.0,30.0,-100.00,SSW,200,0.0,4.0,99,0.00,,,0.05,0.000000,,2013-11-24 03:43:00,
2013-11-23 20:53:00,30.0,30.0,-100.00,SSW,200,0.0,4.0,99,0.00,,,0.05,0.000000,,2013-11-24 03:53:00,
2013-11-23 21:02:00,-999.0,-99.9,-100.00,SSW,200,0.0,4.0,99,0.00,,,0.05,0.000000,,2013-11-24 04:02:00,
2013-11-23 21:13:00,30.0,30.0,-100.00,SSW,200,0.0,4.0,99,0.00,,,0.05,0.000000,,2013-11-24 04:13:00,
2013-11-23 21:43:00,30.0,30.0,-100.00,NNW,330,0.0,3.0,99,0.00,,,0.05,0.000000,,2013-11-24 04:43:00,
2013-11-23 21:53:00,30.0,30.0,-100.00,NNW,330,0.0,3.0,99,0.00,,,0.05,0.000000,,2013-11-24 04:53:00,
2013-11-23 22:02:00,30.0,30.0,-100.00,NNW,330,0.0,3.0,99,0.00,,,0.05,0.000000,,2013-11-24 05:02:00,
2013-11-23 22:12:00,30.0,30.0,-100.00,NNW,330,0.0,3.0,99,0.00,,,0.05,0.000000,,2013-11-24 05:12:00,
2013-11-23 22:43:00,30.0,30.0,-100.00,NE,48,4.0,7.0,99,0.00,,,0.05,0.000000,,2013-11-24 05:43:00,
2013-11-23 22:53:00,30.0,30.0,-100.00,NE,48,4.0,7.0,99,0.00,,,0.05,0.000000,,2013-11-24 05:53:00,
2013-11-23 23:02:00,30.0,30.0,-100.00,NE,48,4.0,7.0,99,0.00,,,0.05,0.000000,,2013-11-24 06:02:00,
2013-11-23 23:12:00,30.0,30.0,-100.00,NE,48,4.0,7.0,99,0.00,,,0.05,0.000000,,2013-11-24 06:12:00,
2013-11-23 23:42:00,30.0,30.0,-100.00,NE,49,3.0,6.0,100,0.00,,,0.05,0.000000,,2013-11-24 06:42:00,
2013-11-23 23:52:00,30.0,30.0,-100.00,NE,49,3.0,6.0,100,0.00,,,0.05,0.000000,,2013-11-24 06:52:00,